Beverly, MA

11:46 PM EST on November 18, 2017 (GMT -0500)
Beverly Municipal

Weather History for KBVY - May, 2014

Change the Weather History Date:

Wednesday, May 28, 2014

  Actual Average Record
Temperature  
Mean Temperature 44 °F -  
Max Temperature 48 °F 65 °F 91 °F (2016)
Min Temperature 39 °F 46 °F 11 °F (1976)
Degree Days  
Heating Degree Days 22    
Moisture  
Dew Point 44 °F    
Average Humidity 89    
Maximum Humidity 93    
Minimum Humidity 80    
Precipitation  
Precipitation 0.23 in - - ()
Sea Level Pressure  
Sea Level Pressure 30.05 in    
Wind  
Wind Speed 9 mph (NE)    
Max Wind Speed 15 mph    
Max Gust Speed 29 mph    
Visibility 7 miles    
Events Rain    
Averages and records for this station are not official NWS values.
T = Trace of Precipitation, MM = Missing Value Source: NWS Daily Summary

Daily Weather History Graph

Daily Weather History Graph

Search for Another Location

Airport or City:

Trip Planner

Search our weather history database for the weather conditions in past years. The results will help you decide how hot, cold, wet, or windy it might be!

Date:

Astronomy

May. 28, 2014 Rise Set
Actual Time 5:10 AM EDT 8:11 PM EDT
Civil Twilight 4:37 AM EDT 8:45 PM EDT
Nautical Twilight 3:54 AM EDT 9:28 PM EDT
Astronomical Twilight 3:03 AM EDT 10:19 PM EDT
Moon 5:16 AM EDT (5/28) 8:05 PM EDT (5/28)
Length of Visible Light 16h 08m
Length of Day
15h 00m
Waning Crescent, 0% of the Moon is Illuminated
May 28
Waning Crescent
May 28
New
Jun 5
First Quarter
Jun 13
Full
Jun 19
Last Quarter

Hourly Weather History & Observations

Time (EDT) Temp. Windchill Dew Point Humidity Pressure Visibility Wind Dir Wind Speed Gust Speed Precip Events Conditions
12:31 AM 48.9 °F - 46.0 °F 90% 29.94 in 9.0 mi East 5.8 mph - 0.00 in Rain Light Rain
12:45 AM 48.2 °F - 46.4 °F 93% 29.94 in 8.0 mi NE 6.9 mph - N/A Rain Light Rain
12:53 AM 48.0 °F - 46.0 °F 93% 29.92 in 10.0 mi ENE 5.8 mph - 0.00 in Rain Light Rain
1:14 AM 48.9 °F - 46.0 °F 90% 29.94 in 10.0 mi NNE 5.8 mph - 0.00 in Rain Light Rain
1:34 AM 48.9 °F - 46.0 °F 90% 29.93 in 10.0 mi NE 10.4 mph - 0.01 in   Overcast
1:53 AM 48.9 °F - 46.0 °F 90% 29.93 in 10.0 mi NNE 8.1 mph 17.3 mph 0.01 in   Overcast
2:53 AM 48.9 °F - 46.0 °F 90% 29.93 in 4.0 mi NNE 10.4 mph - N/A   Overcast
3:53 AM 48.9 °F - 46.0 °F 90% 29.93 in 2.5 mi NE 8.1 mph - 0.00 in Rain Light Rain
4:15 AM 48.9 °F - 46.9 °F 93% 29.91 in 3.0 mi ENE 11.5 mph 19.6 mph 0.00 in   Overcast
4:42 AM 48.9 °F - 46.0 °F 90% 29.92 in 5.0 mi ENE 10.4 mph - 0.01 in Rain Light Rain
4:53 AM 48.9 °F - 46.0 °F 90% 29.92 in 7.0 mi NE 6.9 mph - 0.01 in Rain Light Rain
5:53 AM 48.9 °F - 46.9 °F 93% 29.94 in 4.0 mi ENE 9.2 mph 17.3 mph 0.00 in   Overcast
6:53 AM 48.9 °F - 46.9 °F 93% 29.96 in 7.0 mi ENE 5.8 mph - N/A   Overcast
7:29 AM 48.9 °F - 46.9 °F 93% 29.98 in 2.5 mi ENE 10.4 mph - N/A   Overcast
7:53 AM 48.9 °F - 46.9 °F 93% 29.98 in 1.8 mi Variable 6.9 mph - N/A   Overcast
8:53 AM 48.9 °F - 46.9 °F 93% 30.01 in 1.5 mi NE 10.4 mph - N/A   Overcast
9:53 AM 48.9 °F - 46.9 °F 93% 30.02 in 3.0 mi NE 12.7 mph - 0.12 in Rain Light Rain
10:53 AM 48.9 °F - 46.0 °F 90% 30.04 in 2.5 mi NE 12.7 mph 20.7 mph 0.05 in Rain Light Rain
11:40 AM 48.9 °F - 46.0 °F 90% 30.07 in 7.0 mi NE 12.7 mph - 0.04 in   Overcast
11:53 AM 48.0 °F - 46.0 °F 93% 30.07 in 8.0 mi NE 10.4 mph 21.9 mph 0.04 in   Overcast
12:53 PM 46.9 °F - 44.1 °F 90% 30.08 in 8.0 mi ENE 15.0 mph 28.8 mph N/A   Overcast
1:53 PM 46.4 °F 40.4 °F 44.6 °F 93% 30.12 in 5.0 mi NNE 13.8 mph 28.8 mph N/A   Overcast
2:53 PM 46.4 °F 41.9 °F 44.6 °F 93% 30.13 in 2.5 mi ENE 9.2 mph 24.2 mph N/A   Overcast
3:51 PM 46.4 °F 40.7 °F 42.8 °F 87% 30.15 in 7.0 mi NE 12.7 mph 20.7 mph N/A   Overcast
3:53 PM 46.9 °F - 43.0 °F 86% 30.14 in 7.0 mi NE 9.2 mph 20.7 mph N/A   Overcast
4:53 PM 46.4 °F 40.1 °F 42.8 °F 87% 30.15 in 10.0 mi NE 15.0 mph 20.7 mph N/A   Overcast
5:45 PM 46.9 °F - 42.1 °F 83% 30.16 in 10.0 mi NE 12.7 mph 19.6 mph N/A   Overcast
5:53 PM 46.9 °F - 42.1 °F 83% 30.16 in 10.0 mi NE 13.8 mph - N/A   Overcast
6:08 PM 46.9 °F - 43.0 °F 86% 30.17 in 10.0 mi ENE 9.2 mph - N/A   Overcast
6:53 PM 46.9 °F - 43.0 °F 86% 30.16 in 10.0 mi NE 9.2 mph - N/A   Overcast
7:38 PM 46.9 °F - 41.0 °F 80% 30.18 in 10.0 mi NNE 8.1 mph - N/A   Overcast
7:53 PM 46.9 °F - 41.0 °F 80% 30.17 in 10.0 mi NE 9.2 mph - N/A   Overcast
8:36 PM 45.0 °F 41.8 °F 39.9 °F 82% 30.19 in 10.0 mi NNE 5.8 mph - N/A   Scattered Clouds
8:53 PM 45.0 °F 42.6 °F 39.9 °F 82% 30.18 in 10.0 mi NNE 4.6 mph - N/A   Clear
9:53 PM 42.1 °F 40.2 °F 37.9 °F 85% 30.20 in 10.0 mi NW 3.5 mph - N/A   Clear
10:53 PM 39.9 °F 36.7 °F 37.0 °F 89% 30.20 in 10.0 mi NNW 4.6 mph - N/A   Clear
11:53 PM 39.9 °F 35.1 °F 37.9 °F 93% 30.20 in 10.0 mi NNW 6.9 mph - N/A   Clear